RH
20 19 22 22 22 54 95 105 103 102 98 98 99 100 100 100 103 102 100 104 101 101 107 102 91 86 94 103 81 56 62 81 102 106 94 92 76 47 41 43 49 66 75 72 71 83 101 103 102 102 87 75 65 54 69 90 92 95 94 64 38 68 106 93 80 88 66 40 43 46 47 53 59 65
20 19 19 23 19 32 75 105 104 101 99 98 99 100 100 100 102 103 101 101 104 106 106 105 100 95 97 100 86 63 59 79 101 105 99 91 64 45 48 50 60 80 86 79 68 75 99 103 101 104 90 77 71 60 55 59 75 97 103 77 39 53 101 90 67 89 81 47 42 45 46 50 55 61
19 19 17 21 21 19 53 100 107 99 100 98 96 97 100 101 101 104 102 98 104 107 104 103 101 99 98 101 101 78 56 74 101 104 106 98 61 43 55 64 81 97 90 75 68 75 98 104 100 103 96 81 72 69 63 52 55 73 92 89 56 59 97 79 60 94 96 62 47 42 45 49 50 57
18 20 18 18 22 17 39 92 107 96 101 101 93 94 99 102 104 104 101 99 104 104 101 101 97 98 99 96 101 92 65 65 88 99 107 99 61 40 50 63 86 105 89 68 68 78 94 102 101 101 100 88 72 71 77 71 59 56 76 99 89 86 91 60 54 95 103 83 68 46 41 48 47 52
19 20 19 17 21 15 29 79 98 90 101 104 93 93 98 101 104 104 101 99 103 102 102 103 99 100 101 92 95 103 89 75 78 86 91 81 56 44 45 52 81 105 88 65 68 76 83 95 99 101 103 94 75 73 88 94 81 61 63 89 102 99 81 46 50 91 103 97 91 64 42 44 46 48
19 19 18 16 21 15 20 60 81 79 97 105 92 92 100 100 101 103 101 100 102 101 102 104 101 102 103 97 96 101 100 91 77 74 80 68 49 49 48 49 78 105 88 65 69 73 75 85 96 100 104 100 80 74 93 103 94 76 62 68 86 94 82 52 44 76 100 101 101 85 54 41 46 47
16 18 19 16 19 17 15 41 65 69 88 104 93 90 99 99 99 103 101 99 102 101 101 103 102 104 103 98 99 100 100 98 80 73 83 72 50 49 49 50 79 102 85 66 73 81 76 78 92 100 102 103 85 77 97 99 83 82 76 67 75 84 80 64 44 53 76 83 92 99 76 48 43 47
14 15 19 16 17 19 13 25 55 67 81 100 94 84 94 100 98 101 101 100 101 100 101 100 96 102 104 97 99 101 98 100 94 86 85 70 53 52 50 57 87 98 78 68 82 92 84 78 89 99 102 102 86 81 101 94 72 81 86 79 86 86 75 71 63 53 52 53 68 95 95 65 44 43
13 13 17 17 15 19 13 15 44 69 82 97 94 81 87 99 99 98 101 102 99 97 101 99 90 96 104 100 100 102 99 100 103 100 90 69 56 57 50 56 85 92 73 72 88 98 95 86 87 98 106 100 85 84 95 88 81 94 97 90 96 94 80 82 93 84 62 45 47 75 99 87 57 43
13 11 14 17 14 17 16 11 30 66 88 96 97 85 79 91 100 98 101 103 96 92 100 103 96 97 102 101 98 98 98 100 102 101 96 75 54 51 47 50 75 87 73 72 90 103 104 94 85 96 110 100 86 88 86 78 88 105 102 90 89 92 87 88 102 103 81 56 40 52 88 100 75 51
12 11 12 16 15 15 17 12 16 49 84 96 100 92 76 84 102 100 100 103 94 89 97 102 106 106 103 100 99 97 98 101 100 100 101 85 54 39 40 47 65 77 69 70 92 105 103 94 84 93 108 99 86 92 86 72 86 106 99 78 73 87 92 87 96 100 92 82 59 43 70 101 90 63
11 12 12 13 17 14 15 17 11 27 68 91 100 98 79 80 101 101 99 103 95 93 99 102 108 108 101 100 101 100 100 102 102 101 103 98 67 38 37 48 59 67 65 71 93 104 100 98 94 97 109 99 83 91 94 74 72 88 82 61 60 81 93 92 92 88 87 99 86 49 52 90 102 80
9 11 12 11 16 15 13 18 11 15 48 76 93 101 83 78 98 101 100 106 100 97 102 106 108 104 100 101 102 102 102 102 103 101 100 102 81 48 41 51 56 61 63 70 90 102 99 102 104 103 111 103 81 86 101 89 70 68 65 54 56 73 87 94 96 86 82 97 91 57 43 68 97 98
9 10 12 11 14 15 13 16 13 12 33 59 83 97 85 79 96 101 102 108 103 98 103 106 105 100 98 102 103 103 102 99 101 101 99 100 84 57 50 54 53 57 62 68 87 101 101 101 104 105 109 105 85 83 101 96 77 69 64 56 55 63 74 90 100 94 89 93 86 65 49 50 70 94
8 8 11 10 13 15 13 15 14 11 23 46 70 87 82 81 95 101 103 108 102 99 102 102 101 100 100 102 103 102 101 100 101 101 100 100 88 67 56 53 52 55 59 66 84 102 104 101 103 104 105 104 92 85 92 91 83 80 71 57 54 57 64 84 102 101 97 99 92 80 70 56 51 69
7 8 10 9 11 14 13 14 14 12 17 35 62 80 78 81 95 100 103 107 103 99 101 101 102 101 100 102 101 100 100 101 102 101 100 100 96 81 61 52 53 55 58 67 80 95 104 105 104 100 97 104 102 86 81 87 91 87 75 67 68 64 59 77 100 103 100 102 100 96 90 71 53 52
6 7 8 9 10 13 14 14 14 13 13 26 59 82 77 80 96 100 103 109 105 99 99 101 102 101 100 101 102 100 101 102 101 101 99 99 101 91 66 52 53 54 57 68 76 87 100 104 101 95 94 105 107 90 80 86 93 92 87 90 92 74 56 72 98 103 102 101 96 98 97 80 65 57
5 6 6 8 10 11 14 14 13 15 12 20 59 84 78 83 99 99 102 108 101 94 98 101 100 99 99 100 101 101 101 101 100 101 101 100 101 94 70 51 51 53 57 70 82 92 98 92 86 90 97 104 105 98 91 90 96 101 100 102 99 72 52 73 99 101 102 101 89 86 95 91 80 71
5 5 5 7 9 10 14 14 13 16 11 18 56 82 79 87 102 99 100 104 97 93 99 101 100 99 99 100 101 102 101 100 100 101 102 95 88 85 75 62 62 62 62 76 93 98 90 79 76 88 99 102 101 102 100 98 103 107 102 101 94 68 55 80 100 100 101 100 87 80 90 96 85 78
5 5 4 6 8 9 14 14 12 16 11 16 51 78 80 91 103 99 99 102 98 97 101 102 101 101 101 100 100 103 102 100 101 102 101 94 88 93 97 89 82 76 73 86 100 94 80 71 70 81 96 101 100 102 105 103 102 105 104 103 91 67 67 90 100 101 103 95 83 82 86 87 82 83
4 5 4 5 7 9 13 13 12 15 11 14 44 72 81 94 102 99 100 102 99 99 103 101 97 96 100 100 100 104 103 100 103 101 99 100 99 103 109 102 91 84 81 86 90 81 71 67 65 73 88 97 97 98 104 104 102 105 106 103 90 75 82 100 100 100 105 92 77 78 82 85 93 98
4 5 4 5 6 7 12 13 12 15 11 12 39 67 81 96 103 99 101 102 99 101 104 97 86 87 97 100 98 102 102 101 104 101 99 103 100 100 108 104 92 84 78 78 79 75 71 71 69 72 82 92 91 89 97 104 102 100 100 98 91 82 86 98 100 101 103 87 70 73 86 98 101 94
4 5 4 5 6 6 11 12 11 15 11 12 36 63 80 96 102 100 102 102 98 102 103 93 82 84 96 100 99 101 102 101 102 100 101 102 96 97 106 104 95 87 78 75 77 75 74 75 71 71 81 91 90 86 94 98 86 79 85 89 85 81 85 95 102 105 99 79 63 70 87 95 88 77
4 4 4 5 5 6 10 11 11 14 11 12 33 59 79 97 102 100 102 101 99 102 99 89 84 88 96 101 101 102 101 101 101 100 100 100 97 99 104 105 105 96 79 74 75 73 77 81 76 78 89 93 91 89 87 77 63 61 73 79 79 82 89 97 105 108 97 74 59 64 74 76 76 83
3 4 4 5 5 5 9 10 11 14 11 13 32 57 80 98 102 100 102 100 99 102 95 86 89 94 96 99 99 98 99 102 101 99 99 100 99 103 106 106 110 102 84 77 79 80 89 91 84 88 95 92 89 86 71 56 53 58 66 74 83 90 94 97 105 110 98 74 58 57 62 67 78 93
4 4 4 5 5 5 8 9 11 13 11 14 33 58 82 100 102 99 102 100 99 103 95 86 93 98 94 91 92 95 101 106 103 99 100 101 100 105 106 101 101 101 91 84 85 90 97 94 87 90 94 90 89 81 62 54 56 58 63 75 88 98 101 101 106 108 97 76 57 52 56 62 72 81
4 3 4 5 5 5 7 8 11 13 11 16 35 59 84 101 102 99 102 101 100 103 96 88 95 98 88 80 81 89 99 105 103 100 100 100 100 103 103 97 97 101 100 97 100 105 103 94 92 97 99 98 96 83 66 61 61 59 66 79 90 103 108 105 105 105 95 76 57 49 49 54 60 66
4 3 4 5 4 5 6 7 10 12 11 18 38 62 86 102 102 99 102 101 100 103 98 92 95 95 82 68 65 76 93 102 101 100 100 101 103 103 102 101 100 100 101 103 105 107 102 91 91 98 100 99 97 88 74 69 68 69 73 81 92 105 108 100 96 97 92 78 60 47 43 48 56 63
3 3 4 5 4 5 6 6 10 11 11 19 39 63 89 104 102 100 102 99 100 102 99 94 92 84 73 63 61 75 96 102 99 101 103 102 103 102 101 101 100 99 100 102 102 103 100 92 90 95 96 93 94 91 83 79 80 82 86 91 99 105 103 96 91 92 94 84 63 47 40 42 49 58
3 3 4 4 4 5 5 6 10 10 11 21 40 65 91 103 101 101 101 98 100 102 99 98 90 75 69 72 73 81 97 102 99 102 104 101 100 101 101 101 101 100 100 100 102 102 99 96 95 90 87 91 96 93 88 88 92 96 100 104 106 104 101 98 94 96 99 91 69 51 44 41 42 50
3 3 4 4 4 5 4 6 10 10 12 22 41 67 90 99 99 101 100 98 100 101 100 101 91 75 75 81 76 75 88 100 103 102 101 100 101 103 103 101 101 100 99 101 103 99 92 94 95 86 84 94 97 91 90 97 103 105 105 105 107 105 102 100 100 102 103 95 74 54 46 45 45 46
2 3 4 4 4 5 4 6 9 10 12 23 45 70 87 94 98 101 99 99 100 100 101 100 88 79 84 83 70 65 79 96 103 101 99 102 103 102 102 102 100 100 100 102 104 97 90 92 97 94 96 99 96 92 98 105 107 106 103 102 104 105 102 100 103 105 104 97 81 59 47 48 49 46
2 3 3 4 4 4 4 6 9 11 13 24 49 73 86 92 99 101 100 101 100 101 104 99 86 85 94 91 77 67 73 92 106 104 99 101 101 100 101 101 100 100 99 101 104 96 85 89 100 103 102 101 100 100 104 107 107 106 103 101 102 103 101 101 104 105 102 100 93 76 56 48 48 48
2 3 3 4 4 4 5 6 9 12 13 25 53 79 88 94 99 100 100 101 100 103 106 99 90 93 102 104 93 74 70 91 109 104 100 101 100 99 100 99 99 101 99 100 103 91 76 81 97 102 98 98 102 102 103 107 109 106 102 102 102 101 101 101 102 104 104 103 102 91 68 49 46 49
3 2 3 4 4 4 5 6 9 13 12 26 60 87 92 95 100 100 100 100 100 103 104 98 95 100 104 105 97 76 71 91 105 101 101 104 100 99 101 99 99 102 100 101 105 96 85 91 101 99 95 98 101 100 102 106 106 102 101 103 103 102 102 101 102 106 106 104 104 99 81 58 45 45
3 2 3 4 3 4 5 6 10 13 12 30 69 93 94 97 102 100 100 101 100 101 102 98 99 105 107 106 98 83 82 96 103 100 102 103 99 100 101 100 100 101 100 102 104 100 96 99 101 96 95 99 100 100 102 103 101 101 104 105 103 103 102 101 102 104 104 100 100 101 93 72 53 43
3 2 3 4 3 4 5 6 11 12 12 36 77 97 98 101 104 100 100 102 100 100 102 100 100 104 106 103 93 84 89 99 101 100 102 102 101 101 101 100 101 102 100 101 102 101 101 101 98 97 99 99 98 102 103 100 100 106 108 104 101 101 101 100 101 103 101 94 92 98 99 87 66 49
2 3 4 4 4 5 5 7 12 11 14 42 82 101 102 104 103 100 101 102 100 102 104 101 100 102 104 98 86 82 90 99 100 100 102 101 100 100 100 101 102 101 100 101 101 102 102 97 93 98 102 99 100 106 106 102 104 109 108 102 99 100 100 100 100 102 103 98 93 99 105 99 81 61
2 3 4 3 4 5 5 8 12 10 18 51 89 106 107 104 100 101 104 102 101 103 102 100 102 104 103 98 89 86 92 98 100 101 100 99 100 100 100 102 102 101 101 101 101 102 102 94 91 98 103 101 104 108 104 99 103 107 105 102 102 102 101 102 101 101 104 104 103 105 107 103 95 80
3 4 4 4 5 5 5 10 12 11 27 66 100 109 106 103 101 102 103 101 100 101 100 101 105 106 101 97 95 95 96 98 100 101 99 100 105 106 104 103 103 102 100 98 96 102 105 100 96 100 103 104 109 109 99 91 94 101 103 104 105 103 102 104 106 103 102 103 105 106 104 103 104 97
3 3 3 4 5 4 6 11 11 13 38 81 108 108 101 101 103 102 102 100 99 99 101 102 103 101 98 96 97 99 100 99 100 101 98 96 99 103 106 106 106 105 102 95 91 98 106 104 101 103 104 104 107 105 94 85 85 93 96 97 98 102 105 107 107 105 104 103 104 105 104 106 108 105
4 4 4 4 4 5 8 12 11 18 44 81 105 107 100 100 103 102 100 101 100 100 101 99 93 91 95 99 99 101 102 101 100 101 99 94 93 96 102 106 105 103 102 98 96 101 105 104 103 104 103 102 102 100 92 84 80 81 81 80 86 99 105 99 91 91 97 104 108 110 109 108 109 107
4 4 4 5 5 7 10 11 13 22 42 69 93 104 101 99 102 102 100 101 102 102 102 97 90 89 97 104 105 103 103 102 102 101 101 101 101 101 102 103 101 100 100 100 100 101 103 103 103 102 100 100 101 101 99 93 83 73 68 69 80 95 101 93 85 87 94 101 106 108 109 109 108 104
4 4 5 6 6 9 12 11 15 27 41 62 88 104 102 100 102 101 100 102 104 102 101 101 97 96 102 108 109 107 106 105 104 101 100 102 105 104 102 100 99 100 101 101 101 101 102 101 100 99 100 102 104 104 105 101 89 77 72 72 76 86 93 94 96 100 102 103 102 101 103 107 102 92
4 5 6 6 7 12 13 12 20 34 48 67 92 105 102 100 102 100 99 102 101 97 101 106 104 101 102 107 109 109 109 108 105 102 102 104 106 104 100 99 100 101 101 100 100 100 100 100 100 101 104 106 105 104 104 102 94 89 86 83 81 86 94 99 103 104 104 104 104 103 102 102 95 82
Wind_Speed
58 63 66 66 64 60 57 55 53 51 48 45 45 43 37 37 39 37 34 33 30 27 25 24 23 20 19 23 31 34 33 32 29 27 25 24 23 22 21 19 16 13 11 10 8 7 10 13 14 14 15 14 14 13 14 14 15 18 18 16 20 27 28 28 31 32 34 34 30 31 35 37 41 44
60 63 68 69 68 66 63 60 58 56 52 49 50 47 39 37 41 40 36 34 33 30 28 28 25 22 22 23 30 35 36 33 30 29 27 26 25 23 22 20 18 15 14 12 9 7 10 13 15 15 15 14 13 13 14 14 14 15 18 16 17 23 26 26 28 29 32 34 30 28 31 35 38 41
63 64 69 72 72 70 68 65 62 61 56 52 54 51 44 41 43 42 38 35 35 32 31 31 28 25 25 26 29 35 36 35 32 30 29 27 26 25 22 20 19 17 15 13 11 9 11 14 15 15 15 15 13 13 13 14 15 15 16 17 17 19 22 23 26 28 29 33 32 26 27 31 34 38
66 65 68 74 77 75 72 70 67 65 61 57 57 56 49 44 44 44 41 37 36 35 33 32 31 29 29 29 30 33 35 35 34 31 30 29 28 27 24 22 20 18 16 14 12 11 11 13 14 14 14 14 13 12 13 13 15 16 15 15 16 17 18 19 24 28 27 29 33 28 24 26 29 33
68 68 69 74 79 79 76 74 71 69 67 62 60 60 56 50 46 46 44 40 39 38 35 34 34 32 31 31 32 33 32 34 35 33 32 31 30 29 26 24 21 19 17 15 14 12 11 11 13 14 14 14 13 11 13 13 14 17 15 14 16 17 17 16 20 27 26 25 29 30 26 23 24 28
70 70 70 73 80 83 81 77 75 73 71 67 64 64 61 55 50 49 47 44 42 41 39 38 37 35 34 34 34 32 32 35 36 34 34 33 32 30 28 25 22 20 18 16 14 13 11 11 12 13 13 14 13 10 12 13 13 16 17 16 16 17 18 16 16 23 26 25 26 28 27 24 21 23
71 72 72 74 79 85 84 81 79 77 75 73 69 66 64 59 54 53 51 47 46 44 41 41 41 39 39 38 37 34 33 36 37 36 35 35 34 32 28 26 23 20 18 15 14 14 12 11 10 10 12 13 12 9 10 11 12 15 17 18 18 17 19 18 15 16 21 23 24 24 26 26 22 20
73 73 74 76 79 85 87 85 83 81 79 77 74 69 67 62 58 57 54 51 51 48 43 44 44 42 41 40 38 36 35 36 36 37 38 37 35 33 30 27 24 20 18 16 15 15 13 11 10 9 11 12 11 9 9 9 11 14 17 19 19 19 20 19 16 15 16 18 21 23 23 25 25 20
73 73 75 77 80 85 88 88 87 85 82 80 76 72 69 65 62 61 58 55 53 50 45 45 45 43 42 40 38 38 38 37 35 36 38 38 37 35 32 28 25 21 19 18 16 16 14 12 11 10 10 11 10 9 8 8 10 13 15 16 19 20 19 17 18 18 16 15 17 21 21 22 24 22
73 73 75 78 82 85 88 90 90 88 86 83 78 73 71 69 66 64 61 57 55 52 49 48 47 46 45 43 41 39 38 39 38 35 36 38 38 36 33 30 26 23 21 19 17 17 15 13 12 11 10 10 10 10 9 7 7 9 11 13 17 19 17 14 16 17 17 16 14 17 20 19 20 22
73 72 74 78 83 86 89 91 93 91 89 86 81 76 74 73 69 66 63 60 56 54 52 51 51 50 48 46 44 39 36 39 40 37 36 37 37 36 34 31 28 25 22 20 19 18 17 14 13 12 12 12 10 10 10 7 6 7 10 13 14 17 16 14 13 14 16 18 15 13 17 18 17 20
75 73 74 78 83 87 89 92 94 94 93 91 85 79 77 77 73 68 66 64 59 56 55 55 54 52 49 46 44 41 38 39 40 39 39 38 36 36 35 32 29 26 23 22 21 20 18 15 13 13 14 13 11 10 10 9 8 10 12 13 12 14 17 16 14 13 13 16 16 12 13 16 16 17
77 75 74 77 82 87 90 93 95 96 97 95 89 83 81 80 76 72 71 69 64 59 58 58 56 53 50 48 46 45 44 43 41 40 41 40 36 36 36 33 30 27 25 24 22 20 19 16 15 15 16 15 13 11 11 10 11 11 13 14 12 12 15 17 17 15 11 11 15 14 12 13 15 16
77 77 76 77 82 88 91 94 95 98 99 98 94 88 85 83 79 75 76 75 69 63 61 61 59 56 53 51 49 48 47 44 41 40 42 40 36 37 37 34 31 29 26 25 24 21 19 18 16 16 17 17 14 12 11 11 11 12 14 15 14 13 14 16 18 17 12 11 15 17 13 11 13 15
76 78 79 79 82 87 92 94 96 99 101 101 98 93 89 87 82 78 79 79 73 67 65 65 62 59 56 54 52 50 47 45 43 43 44 40 36 38 39 34 31 29 27 26 24 21 20 19 18 18 18 17 15 13 12 11 11 12 14 15 15 14 15 16 18 18 16 14 17 19 17 13 12 13
74 77 80 81 82 87 92 95 96 99 102 103 101 96 93 90 85 81 82 82 76 71 69 67 65 61 59 57 54 51 49 49 47 45 45 42 38 38 38 35 32 29 27 26 25 22 22 21 21 20 19 17 16 15 13 11 11 12 13 14 15 16 16 16 18 19 19 18 17 19 19 16 12 11
72 76 79 81 83 87 92 95 96 99 103 104 103 99 96 93 88 84 84 82 78 75 72 69 67 63 60 58 57 53 51 50 49 46 44 42 39 38 38 36 33 30 28 27 25 24 23 23 22 21 19 18 17 16 14 12 11 12 13 15 16 17 17 16 17 20 21 20 18 17 17 17 15 12
71 75 78 81 84 88 93 96 97 100 104 106 105 101 98 95 91 87 86 83 80 78 75 71 68 64 60 58 58 56 52 50 48 45 43 42 40 38 37 35 33 31 29 28 26 25 24 23 23 22 20 19 19 18 15 13 12 12 14 16 17 18 18 16 17 20 22 21 19 16 15 16 17 16
69 73 76 79 83 89 94 97 98 100 104 108 107 103 100 98 94 90 87 85 83 81 78 73 70 67 63 59 58 58 54 51 48 44 42 43 40 36 34 33 33 32 32 30 28 25 24 24 23 22 20 20 20 19 17 15 14 13 14 16 18 19 19 17 16 20 21 21 20 17 15 16 18 19
66 71 75 77 82 90 96 98 99 101 105 109 109 105 102 100 96 92 89 87 86 84 80 76 72 69 65 60 60 60 57 53 49 44 42 43 41 37 36 34 34 34 34 32 29 26 25 25 24 22 21 21 20 19 18 17 16 16 16 18 20 20 19 17 17 19 21 22 22 19 17 18 19 20
64 69 74 77 81 89 97 99 100 101 105 110 110 107 105 103 98 94 92 90 88 86 83 79 75 71 66 62 61 62 58 53 49 44 43 45 44 42 41 39 37 37 36 33 30 28 27 25 24 23 22 22 21 19 19 19 19 18 19 20 21 20 18 18 18 19 21 23 23 21 20 20 21 21
62 67 72 76 81 89 97 100 101 102 106 112 112 110 108 105 100 97 95 92 90 88 86 82 77 73 68 63 62 62 58 53 50 46 45 46 45 43 43 41 38 38 37 34 31 30 28 26 24 24 24 23 21 20 19 20 20 20 19 20 21 20 19 19 19 19 21 24 25 23 19 17 19 20
61 66 71 76 80 88 96 101 102 102 106 112 114 112 111 107 102 99 97 95 92 90 88 84 78 74 70 64 62 63 59 55 52 49 46 45 44 44 43 39 37 38 38 35 33 31 29 27 25 24 24 23 21 19 19 20 21 20 19 20 21 20 20 20 19 20 22 25 25 22 18 17 20 21
60 65 70 75 81 88 96 101 103 103 107 114 116 114 113 110 105 102 100 96 93 91 89 86 81 77 72 66 63 64 61 57 53 49 46 45 44 44 43 39 38 39 37 35 33 32 29 27 25 24 24 23 21 20 21 22 21 19 19 20 20 20 20 20 21 21 23 24 24 22 20 21 23 23
59 64 69 75 82 89 96 102 104 105 108 115 118 116 115 112 108 105 102 98 94 92 90 88 83 78 74 69 65 64 63 61 56 49 46 46 46 46 44 41 40 39 37 35 34 32 30 28 25 25 25 24 21 21 22 22 20 19 19 19 18 19 20 21 21 21 22 23 23 23 23 23 22 21
59 64 69 77 84 90 96 102 105 106 110 117 120 118 117 115 111 107 104 100 96 92 91 89 84 79 76 71 66 64 65 64 59 51 46 46 49 49 47 43 41 40 36 34 34 32 31 29 26 26 26 24 23 23 24 22 21 21 20 19 18 19 20 20 20 20 21 22 23 24 24 23 21 19
59 64 70 78 86 91 96 103 106 108 112 120 122 120 120 118 113 108 105 102 98 93 91 90 85 80 77 72 68 66 66 65 61 54 48 47 49 50 48 44 42 40 36 35 35 34 32 29 27 26 26 25 25 25 24 23 22 22 21 20 20 20 20 19 19 19 20 22 23 23 23 22 20 18
60 65 71 80 88 92 97 103 107 109 114 121 124 122 122 120 114 108 105 102 99 95 92 90 86 82 78 75 71 68 67 65 62 57 52 49 49 50 49 46 43 40 38 37 37 36 33 30 28 27 26 26 27 27 25 24 24 22 21 21 21 21 21 19 19 19 20 21 22 22 22 20 19 17
62 67 73 82 89 93 97 103 108 110 116 124 126 124 124 121 115 108 104 102 100 96 93 90 87 84 79 75 72 70 68 67 63 58 56 54 51 50 49 47 44 42 39 38 38 37 34 31 29 27 27 27 27 28 26 26 25 24 22 22 22 22 22 20 19 19 20 20 20 20 19 18 16 15
64 69 76 84 90 94 98 103 108 112 119 126 128 125 125 122 115 108 104 102 99 96 93 91 88 85 80 76 74 71 68 66 63 59 56 55 53 50 49 48 47 44 42 41 40 38 36 33 30 29 28 27 28 28 27 27 27 26 24 23 23 23 22 21 19 19 19 20 20 20 19 17 14 11
65 71 77 85 91 94 98 103 108 113 121 128 129 126 124 121 114 107 103 101 99 97 94 92 89 85 81 79 76 71 67 65 63 58 54 53 53 51 49 48 48 46 45 45 44 41 37 34 32 31 29 28 28 28 27 28 28 27 26 25 24 24 23 22 20 19 19 20 20 20 19 18 14 11
68 73 80 86 91 94 98 103 108 114 122 128 128 125 122 119 114 107 102 100 98 96 93 92 90 85 81 78 75 70 66 64 62 57 53 53 53 52 49 48 47 45 45 46 45 41 37 35 33 31 29 28 28 27 28 28 29 28 27 26 25 25 24 22 20 19 19 19 18 19 20 19 17 14
69 75 80 86 90 93 98 103 108 115 122 128 128 123 119 117 113 106 100 98 97 94 92 91 89 85 80 77 74 70 66 64 62 58 55 54 54 53 50 48 46 45 45 45 45 42 39 36 34 31 29 28 28 28 29 29 28 28 27 26 25 25 24 23 22 20 19 18 18 19 19 20 19 17
70 75 79 85 90 94 97 102 109 115 123 128 127 121 118 117 112 104 98 96 96 93 91 90 89 85 81 79 76 71 67 64 61 59 56 55 55 53 50 46 46 46 45 44 43 42 40 37 35 32 30 28 28 29 29 28 28 27 26 25 25 25 25 24 22 21 19 19 19 19 19 20 20 18
68 73 78 84 90 93 96 102 109 116 123 127 126 120 116 115 111 102 96 95 95 92 90 89 88 85 82 80 77 72 67 63 60 59 58 57 57 55 50 46 46 46 45 44 44 43 41 38 36 33 31 30 30 30 29 29 28 27 26 26 26 26 25 24 23 21 20 20 20 20 21 21 20 19
66 71 77 83 88 91 95 102 110 117 123 127 125 119 115 113 109 102 95 94 95 92 89 88 88 84 82 81 77 71 67 63 61 60 61 59 57 56 52 48 46 45 44 45 45 43 42 40 38 35 33 33 32 31 30 29 28 27 27 26 26 26 25 25 24 22 22 22 22 22 22 22 21 20
64 69 75 81 86 90 96 103 110 116 123 126 123 118 113 111 108 102 96 94 94 92 89 88 87 84 81 81 78 73 69 66 63 63 64 61 58 56 53 50 47 45 45 45 45 44 43 42 39 37 36 36 35 33 32 31 30 28 27 26 26 25 25 26 26 24 23 23 23 23 24 24 24 22
62 68 74 79 84 90 97 104 109 116 122 124 120 115 111 109 106 101 96 93 92 91 89 87 85 83 82 81 78 73 71 69 65 63 63 62 60 57 54 51 48 47 46 46 45 44 44 42 40 38 37 37 37 36 34 33 31 30 28 27 26 26 25 26 26 25 24 24 24 24 25 25 25 24
61 68 73 79 85 90 97 103 109 115 121 122 118 113 110 108 104 100 95 92 91 90 88 85 82 81 82 80 77 73 71 69 66 63 61 60 58 57 55 52 50 49 47 46 45 44 44 43 41 40 39 39 39 37 36 34 33 32 30 29 29 29 28 27 27 27 26 26 26 26 27 26 26 26
62 69 76 82 87 91 97 104 109 116 121 120 117 114 110 106 103 99 95 92 89 87 85 83 81 81 81 80 77 73 70 67 64 62 60 58 56 55 53 52 52 50 49 47 46 45 45 44 42 41 41 41 40 39 37 36 34 33 31 31 32 32 32 30 29 28 28 28 28 28 28 27 26 27
64 71 78 84 88 92 98 104 110 117 122 121 118 114 109 105 102 98 94 90 87 84 83 82 80 79 79 79 77 73 70 66 63 61 60 59 57 55 54 53 53 52 50 48 47 46 46 45 43 42 43 43 41 40 39 38 36 34 33 32 33 33 33 32 31 30 30 30 30 30 29 28 28 28
65 71 78 83 88 93 99 105 113 121 124 122 117 112 106 102 100 98 93 88 84 82 82 81 78 75 75 75 74 72 70 67 64 62 61 60 58 56 55 54 53 52 51 50 49 47 46 44 44 44 44 43 42 42 41 39 37 36 34 33 33 33 33 32 31 30 30 31 31 31 30 30 30 30
65 71 77 82 88 95 102 109 116 122 124 120 115 109 103 100 98 96 91 87 84 82 80 77 74 72 72 72 71 70 69 67 65 64 62 60 59 57 55 54 54 53 53 52 50 48 46 45 45 45 44 43 43 43 41 39 38 36 34 33 32 33 33 32 31 30 29 29 30 30 31 32 32 32
67 72 78 83 90 97 104 111 117 119 119 116 112 107 100 96 95 92 88 85 84 81 77 73 71 70 70 69 69 68 67 66 65 64 62 61 59 56 55 55 54 54 54 53 51 49 48 47 47 45 44 44 44 43 41 39 38 36 35 33 33 33 34 34 34 33 31 30 30 31 32 34 35 34
70 74 79 85 91 97 104 109 113 113 112 112 110 105 98 94 91 87 83 81 80 77 73 70 69 67 65 64 65 66 66 65 64 63 62 61 59 57 56 57 57 56 56 54 52 50 49 49 47 46 46 45 44 42 41 40 39 37 36 35 35 36 36 36 36 35 34 33 33 33 34 36 37 36
Wind_Direction
241 237 238 238 235 230 225 224 222 220 221 221 215 214 220 221 218 216 216 217 217 221 221 217 216 213 218 239 248 244 237 235 237 238 236 238 242 242 240 241 249 259 271 283 290 305 317 318 325 333 334 337 344 341 341 351 357 1 2 5 13 10 8 13 13 18 25 23 25 34 37 42 44 42
243 236 234 235 234 230 225 223 221 217 219 219 214 212 213 215 216 213 212 214 214 215 216 214 214 209 207 225 241 241 235 232 235 238 236 236 238 240 240 241 246 252 261 273 279 291 306 309 317 329 333 335 342 343 344 347 347 358 6 3 4 8 11 16 12 14 26 24 22 31 36 41 45 44
244 237 232 232 233 230 224 222 220 216 216 218 214 211 210 211 212 211 209 211 211 211 212 213 214 210 205 210 226 234 232 229 232 236 236 235 235 237 239 240 243 247 253 264 271 281 296 302 310 323 330 332 337 341 345 352 350 347 355 358 0 5 14 22 14 11 23 26 21 26 34 39 44 44
244 239 233 230 231 229 224 221 220 215 213 216 213 210 210 210 209 208 207 210 210 208 210 213 212 209 203 202 214 226 228 228 230 233 234 235 234 235 238 239 240 242 246 257 267 275 289 296 304 317 326 328 333 340 341 349 357 354 352 1 7 9 13 23 17 10 18 24 21 22 28 35 40 42
242 239 234 229 229 228 224 220 220 215 212 213 213 210 211 212 209 207 207 209 208 204 207 210 207 205 202 199 209 221 225 226 227 229 232 235 234 233 235 237 238 240 243 254 264 270 278 286 298 310 320 324 326 338 347 346 354 358 357 1 7 8 6 14 19 14 13 18 19 20 23 28 35 37
240 237 233 229 227 227 223 219 219 216 211 211 212 210 211 212 210 206 206 208 206 202 204 206 202 203 204 201 205 212 219 225 226 227 232 233 232 232 233 234 237 238 240 250 261 265 269 276 291 303 311 318 318 329 349 353 356 358 357 359 1 357 354 0 15 17 14 14 16 19 21 22 28 32
239 234 231 228 226 225 223 219 218 216 212 211 212 211 210 210 208 205 205 207 206 201 202 204 202 203 205 204 204 203 210 222 227 228 232 231 230 231 231 232 235 235 237 246 256 261 266 269 280 297 304 307 310 317 336 347 355 356 355 358 359 350 344 350 2 9 14 14 12 16 21 19 21 27
240 234 229 227 225 223 222 219 216 215 212 211 212 211 208 207 205 203 204 206 204 200 200 203 204 204 203 203 205 204 207 218 225 228 231 231 230 229 229 230 232 231 234 242 249 256 264 267 270 286 296 295 299 307 316 330 345 351 350 352 356 351 346 352 359 357 4 10 8 10 18 19 17 20
240 234 228 225 223 221 220 218 215 213 212 210 211 210 207 204 203 201 203 205 203 199 200 203 204 203 202 201 204 208 210 213 217 223 228 229 228 227 226 228 229 229 232 238 243 251 259 264 265 271 280 282 288 295 301 315 331 345 349 344 345 350 352 0 4 355 352 1 1 1 10 18 17 15
241 234 228 224 222 220 219 217 214 212 211 209 209 209 206 203 201 200 201 203 201 199 198 200 203 204 203 201 202 206 210 213 214 218 226 228 226 226 226 226 227 227 229 233 238 246 255 260 262 262 264 268 278 286 289 302 318 332 336 327 334 347 352 356 359 353 350 354 357 357 2 12 18 15
240 235 228 224 221 219 217 216 214 211 210 208 207 208 205 201 199 199 199 199 199 198 198 199 202 204 205 204 203 202 207 214 217 220 227 228 225 225 226 227 227 226 227 230 235 242 251 259 261 259 258 259 266 277 280 285 293 298 303 310 329 346 347 347 344 341 347 353 354 355 356 4 16 18
238 234 228 223 220 218 216 215 213 210 209 208 206 206 204 200 197 198 197 197 197 199 199 199 201 203 205 206 206 205 207 212 214 218 226 230 225 224 226 226 226 225 225 229 235 241 248 258 263 258 257 255 257 268 274 273 274 277 288 305 326 341 345 347 338 326 336 349 350 349 351 357 9 17
236 233 228 222 219 218 215 214 212 209 208 207 205 204 203 199 197 198 197 197 198 199 199 199 199 202 203 204 207 208 210 212 213 216 225 230 227 224 225 224 222 222 224 229 235 240 246 255 260 257 256 254 252 261 269 272 276 278 288 305 321 333 340 348 344 332 328 334 337 341 344 349 359 10
234 231 227 222 218 217 215 213 211 208 207 206 204 204 202 199 197 199 198 198 198 197 197 198 199 201 202 202 204 207 210 212 211 214 223 228 225 223 223 221 220 220 222 227 233 237 242 250 255 254 254 253 251 257 266 272 277 282 290 303 316 326 333 340 344 339 326 311 318 331 338 338 343 357
233 229 225 221 217 216 214 212 210 208 206 205 204 203 202 198 197 199 198 198 198 196 196 198 199 200 202 201 201 203 207 210 209 213 221 226 224 222 221 219 218 219 221 225 230 234 239 245 249 249 251 252 250 254 264 272 277 285 295 304 313 323 329 334 336 336 329 314 309 318 327 329 327 335
232 228 225 220 216 214 214 212 210 207 205 204 203 203 200 197 197 198 198 198 198 196 196 198 198 199 202 202 200 200 204 207 208 212 220 223 222 221 221 218 217 218 220 225 230 232 236 241 243 246 249 250 249 252 260 269 276 286 298 305 311 319 328 330 327 327 329 325 314 310 316 324 324 318
229 227 224 219 215 213 212 211 209 206 204 203 202 202 199 196 196 197 197 197 197 196 196 197 198 199 202 203 202 201 202 205 208 212 217 220 220 221 221 218 216 217 220 224 229 231 234 238 240 243 246 247 247 251 257 266 276 287 294 298 303 311 322 326 320 319 324 327 323 313 309 318 328 323
228 226 222 218 213 211 211 210 208 206 203 201 201 200 197 195 196 196 195 196 196 195 196 197 197 199 201 203 204 202 202 205 207 211 216 219 220 221 221 219 217 218 221 224 229 231 233 237 239 240 243 245 247 251 255 263 273 281 287 292 295 304 318 323 315 312 319 326 326 316 306 310 320 325
226 224 222 217 211 209 209 209 207 205 202 200 199 198 195 194 195 195 194 195 195 194 195 196 197 197 199 202 203 201 202 204 205 208 216 221 222 221 221 220 218 218 220 224 227 228 231 236 237 238 240 243 247 251 254 259 267 272 279 286 289 299 315 322 312 307 314 324 325 315 303 300 306 316
223 222 220 216 210 207 207 207 206 204 201 199 198 197 194 193 194 195 194 195 194 194 195 196 196 196 198 201 202 200 202 204 204 207 216 222 222 220 219 218 216 217 219 222 224 225 229 234 236 236 238 243 248 252 252 254 261 267 272 278 284 295 311 318 310 306 312 322 324 314 300 295 299 307
221 219 218 214 209 205 205 205 204 203 200 198 197 196 193 192 193 194 194 194 194 195 196 196 195 195 196 199 201 200 202 203 204 207 214 219 220 219 218 217 216 216 218 221 223 224 228 233 235 235 238 243 249 252 250 251 259 265 268 273 281 292 306 312 307 307 315 322 323 316 305 300 299 301
218 217 215 212 207 204 203 203 203 202 199 197 196 195 192 191 193 194 194 194 194 195 196 196 195 194 195 197 198 199 200 200 202 205 212 218 219 218 219 218 216 217 219 221 224 225 228 233 235 235 239 243 248 252 251 252 259 264 267 271 279 288 299 306 307 310 318 323 322 317 310 301 296 297
216 215 213 210 206 203 202 202 202 201 198 195 195 194 192 191 192 194 194 193 193 195 196 195 194 194 195 195 196 198 197 196 200 205 211 217 219 218 219 218 215 216 219 221 223 225 228 233 236 237 240 243 249 253 251 252 258 264 266 270 278 288 296 302 307 312 318 322 321 317 306 294 295 302
214 213 210 207 204 201 201 200 200 200 197 194 194 193 191 191 192 193 193 192 192 194 195 195 194 195 194 193 195 196 195 193 197 204 209 214 217 216 216 215 215 217 219 221 224 226 228 233 237 239 240 242 247 250 249 252 260 265 267 271 279 288 294 299 303 308 315 319 320 315 306 300 302 306
212 211 208 205 202 200 199 199 198 198 196 193 193 192 190 191 192 193 192 191 191 193 194 194 194 195 195 194 194 195 194 194 196 200 205 210 214 215 215 215 216 218 219 221 224 225 228 233 236 237 238 240 242 245 248 255 262 266 268 273 280 286 291 296 299 305 313 318 318 314 310 306 303 301
210 209 206 203 201 199 198 197 197 197 194 192 192 191 189 191 193 193 192 191 190 192 193 194 193 194 194 194 194 194 195 196 197 198 202 207 211 214 215 216 217 217 219 222 225 225 228 232 235 237 238 239 240 243 249 256 262 266 269 274 278 284 290 296 300 306 314 318 317 314 310 305 298 293
208 207 204 201 199 198 197 196 196 195 193 191 190 190 189 190 192 192 192 191 191 191 193 193 193 194 194 194 195 195 195 195 196 198 201 205 210 213 214 216 218 218 219 222 224 224 226 231 234 236 238 239 240 244 249 255 260 265 270 274 277 283 289 296 302 308 313 317 317 315 312 308 301 296
206 204 202 200 199 197 196 195 194 194 191 190 189 189 189 190 192 191 191 191 191 191 192 192 193 194 194 195 196 196 195 195 196 198 200 203 207 210 211 214 218 219 219 220 222 223 226 230 234 236 238 239 241 244 247 252 258 264 269 274 277 281 286 294 302 306 310 315 317 315 314 314 310 305
204 202 200 199 198 196 195 193 193 192 190 189 189 188 189 190 191 191 191 191 191 192 192 193 194 195 195 196 197 196 196 196 197 199 201 203 205 207 209 212 217 219 219 220 222 224 227 231 236 239 240 241 243 244 246 250 256 262 268 273 276 279 283 290 298 302 306 312 314 312 314 319 319 313
203 200 199 198 197 196 194 192 192 190 189 188 188 188 189 189 190 190 191 191 192 192 193 193 194 195 195 197 197 196 196 197 199 201 204 205 206 207 209 213 217 220 219 219 222 225 228 231 236 239 241 241 243 244 246 250 255 261 265 269 273 276 279 285 293 299 303 308 310 306 306 315 324 323
201 199 197 197 197 195 192 191 190 189 188 187 187 188 188 189 189 190 190 191 192 193 194 194 194 195 195 197 196 195 195 198 199 202 205 206 207 208 210 212 216 219 219 219 223 226 228 231 235 239 241 242 243 245 247 251 255 259 263 267 271 274 276 282 291 298 301 304 307 302 298 301 309 316
200 198 196 196 196 194 191 190 189 188 187 187 187 187 188 188 188 189 190 191 192 193 194 194 195 195 196 196 195 194 195 197 198 201 204 206 208 210 210 210 213 216 217 219 223 227 229 232 236 239 242 243 243 245 248 250 254 258 263 267 270 273 276 281 288 295 297 299 302 302 297 294 294 297
200 198 196 195 194 193 190 188 187 186 186 186 186 187 187 186 187 189 189 190 192 192 193 194 194 195 195 195 194 194 195 196 197 200 203 207 210 211 210 210 213 216 218 221 225 227 229 232 235 238 242 244 244 246 248 250 254 258 262 266 270 273 276 278 281 288 291 291 293 298 298 293 288 286
199 197 195 193 192 191 189 187 186 185 185 185 185 186 186 185 186 188 189 190 192 192 193 194 194 195 195 195 195 195 195 196 198 200 203 206 209 209 209 211 213 216 219 222 225 228 230 231 233 235 238 242 245 247 249 251 254 256 258 263 268 271 273 274 278 284 286 285 287 291 294 292 287 282
198 196 193 192 191 190 187 185 184 184 184 184 184 185 185 185 186 188 188 189 191 192 193 194 195 195 195 195 195 195 195 196 199 200 202 205 206 207 208 210 213 217 220 223 226 228 230 231 232 234 235 240 245 247 248 250 251 254 258 263 266 268 271 275 278 281 282 281 283 287 289 289 287 282
197 194 192 191 189 187 185 184 183 183 183 183 183 184 184 184 186 187 188 189 191 192 194 195 196 196 196 196 196 195 195 197 199 200 201 203 206 208 209 212 215 220 224 226 227 229 229 230 232 233 235 239 244 246 248 250 253 257 262 265 265 267 271 274 275 276 277 278 280 284 285 285 284 282
194 191 190 189 187 185 183 183 183 182 182 182 182 183 183 184 186 187 187 189 191 193 195 197 197 197 197 197 196 195 195 197 199 200 201 203 206 209 211 214 219 223 227 228 229 229 229 230 231 233 236 240 243 245 248 252 255 258 261 262 263 267 271 272 272 272 273 275 277 280 282 282 281 280
191 188 187 187 185 183 182 182 181 181 180 180 181 181 182 183 185 186 188 189 190 193 195 197 198 198 198 197 197 196 196 197 200 202 203 206 209 211 214 217 221 223 225 227 228 228 228 230 232 235 236 238 240 243 247 251 253 255 257 258 260 265 268 271 271 270 270 271 274 275 277 280 280 277
186 184 184 183 183 181 180 180 180 179 178 179 180 180 181 183 185 186 187 189 190 193 195 196 198 198 197 197 197 196 197 199 202 205 207 209 211 214 216 219 221 222 224 226 228 229 230 231 234 235 236 237 240 244 246 249 251 255 256 256 257 259 263 268 271 270 267 268 270 272 274 277 279 276
182 180 180 181 181 180 179 178 178 177 177 178 178 179 181 183 184 185 186 188 189 191 193 195 197 197 197 196 197 197 198 200 203 206 208 210 212 214 216 219 222 224 226 228 229 230 230 231 234 236 237 239 243 245 247 248 251 254 255 256 256 258 260 265 269 269 266 266 268 271 272 274 277 277
179 178 178 178 178 177 176 176 176 175 176 177 178 179 181 182 183 184 185 186 188 190 192 194 196 196 196 197 198 199 200 202 204 206 208 210 213 215 217 219 222 225 228 230 230 229 229 231 233 236 238 241 245 247 248 249 250 252 255 257 259 259 260 264 268 268 266 266 268 270 270 271 274 275
176 176 176 175 174 174 174 174 174 175 176 177 177 178 180 181 182 183 184 185 187 189 192 195 197 197 197 199 200 202 203 204 205 207 209 212 215 217 218 220 222 225 227 228 228 227 228 231 233 236 239 243 246 248 250 251 251 252 255 259 260 259 260 264 267 268 266 265 266 267 268 269 271 272
173 174 173 172 172 172 173 173 174 175 176 177 177 178 179 181 182 184 185 187 189 192 194 196 197 198 199 201 202 204 205 207 208 210 212 214 216 218 218 220 222 224 224 225 226 227 230 232 234 236 239 243 246 249 252 253 254 255 257 259 259 258 259 262 265 267 267 266 265 266 268 269 269 270
170 171 170 170 170 171 172 173 173 174 175 176 176 177 179 181 183 184 186 189 193 195 196 197 198 200 202 203 205 206 207 209 211 212 214 215 216 217 218 220 221 222 223 225 227 229 231 233 235 237 240 243 246 249 252 253 255 257 259 259 257 257 258 262 265 268 270 269 268 267 269 269 269 269
166 167 167 168 169 170 171 171 172 173 174 175 176 178 180 182 183 184 187 191 194 196 197 198 200 201 203 204 206 208 209 210 212 213 214 215 216 217 218 220 221 223 225 228 229 229 230 232 235 238 240 244 247 250 252 253 255 258 259 259 258 258 259 262 266 269 271 272 271 269 269 270 271 271